This is the latest recevied weather packets stored in our database for station/object KD7AWQ. If no packets are shown the sender has not sent any weather packets the latest 10 day(s).
| Time | Temp. | Humidity | Pressure | Rain* | Wind** | Luminosity | Snow |
|---|---|---|---|---|---|---|---|
| 1777965052 | 13.89° C | 68% | 1183.6 hPa | 0 mm | - | 0 W/m² | - |
| 1777964749 | 13.89° C | 68% | 1183.6 hPa | 0 mm | - | 0 W/m² | - |
| 1777964445 | 14.44° C | 65% | 1183.7 hPa | 0 mm | - | 0 W/m² | - |
| 1777964141 | 14.44° C | 62% | 1183.5 hPa | 0 mm | - | 0 W/m² | - |
| 1777963838 | 15° C | 60% | 1183.5 hPa | 0 mm | - | 0 W/m² | - |
| 1777963233 | 14.44° C | 63% | 1183.6 hPa | 0 mm | - | 0 W/m² | - |
| 1777962930 | 14.44° C | 62% | 1183.5 hPa | 0 mm | - | 0 W/m² | - |
| 1777962626 | 14.44° C | 65% | 1183.5 hPa | 0 mm | - | 0 W/m² | - |
| 1777962323 | 13.89° C | 67% | 1183.2 hPa | 0 mm | - | 0 W/m² | - |
| 1777962020 | 13.89° C | 68% | 1183.3 hPa | 0 mm | - | 0 W/m² | - |
| 1777961717 | 13.89° C | 71% | 1183.2 hPa | 0 mm | - | 0 W/m² | - |
| 1777961415 | 13.89° C | 69% | 1183.5 hPa | 0 mm | - | 0 W/m² | - |
| 1777961112 | 13.89° C | 68% | 1183.9 hPa | 0 mm | - | 0 W/m² | - |
| 1777960809 | 14.44° C | 68% | 1183.8 hPa | 0 mm | - | 0 W/m² | - |
| 1777960504 | 14.44° C | 67% | 1183.9 hPa | 0 mm | - | 0 W/m² | - |
| 1777960201 | 13.89° C | 68% | 1183.7 hPa | 0 mm | - | 0 W/m² | - |
| 1777959898 | 13.89° C | 69% | 1183.7 hPa | 0 mm | - | 0 W/m² | - |
| 1777959596 | 14.44° C | 69% | 1183.8 hPa | 0 mm | - | 0 W/m² | - |
| 1777959293 | 13.89° C | 69% | 1183.8 hPa | 0 mm | - | 0 W/m² | - |
| 1777958990 | 14.44° C | 69% | 1183.8 hPa | 0 mm | - | 0 W/m² | - |
| 1777958687 | 13.89° C | 71% | 1183.5 hPa | 0 mm | - | 0 W/m² | - |
| 1777958384 | 13.89° C | 74% | 1183.3 hPa | 0 mm | - | 0 W/m² | - |
| 1777958081 | 13.89° C | 75% | 1183.1 hPa | 0 mm | - | 0 W/m² | - |
| 1777957779 | 13.89° C | 75% | 1183 hPa | 0 mm | - | 0 W/m² | - |
| 1777957477 | 13.89° C | 75% | 1183 hPa | 0 mm | - | 0 W/m² | - |
* Rain latest hour (hover to see other rain measurements)
** Current wind speed in m/s (hover to see current wind gust speed)